Preview of NWS' New Version of Forecast
This preview is not operational and should not be used for support decisions.

Regional Weather Roundup (RWR)

Issued by National Weather Service (NWS)

                            
000
ASUS45 KCYS 210610
RWRWY 

WYOMING REGIONAL WEATHER ROUNDUP
NATIONAL WEATHER SERVICE CHEYENNE WY
1200 AM MDT WED AUG 21 2019

NOTE:  "FAIR" INDICATES FEW OR NO CLOUDS BELOW 12,000 FEET
WITH NO SIGNIFICANT WEATHER AND/OR OBSTRUCTIONS TO VISIBILITY.

WYZ001-210700-
YELLOWSTONE NATIONAL PARK
  
CITY           SKY/WX    TMP DP  RH WIND       PRES   REMARKS
LK YELLOWSTONE   N/A     49  38  65 CALM      30.37S                  
6HR MIN TEMP:  49; 6HR MAX TEMP:  75;                                

W YELLOWSTONE  NOT AVBL                                               

$$
WYZ002>013-054>058-071-098>099-210700-
NORTHERN WYOMING
  
CITY           SKY/WX    TMP DP  RH WIND       PRES   REMARKS
JACKSON        FAIR      54  37  52 N7        30.23R                  
CODY           FAIR      67  52  58 NE8       30.19R                  
GREYBULL       FAIR      77  53  43 N7        30.07R                  
6HR MIN TEMP:  77; 6HR MAX TEMP:  95;                                

WORLAND        FAIR      71  53  52 E5        30.09S                  
6HR MIN TEMP:  69; 6HR MAX TEMP:  93;                                

SHERIDAN       FAIR      64  53  67 SW7       30.11R                  
6HR MIN TEMP:  64; 6HR MAX TEMP:  86;                                

BUFFALO        FAIR      68  53  58 S8        30.18F                  
6HR MIN TEMP:  68; 6HR MAX TEMP:  83;                                

GILLETTE       FAIR      69  55  60 S18       30.13F                  
6HR MIN TEMP:  69; 6HR MAX TEMP:  82;                                

HULETT         FAIR      61  54  77 E5        30.16F                  
NEWCASTLE      FAIR      63  52  67 E7        30.15                   

$$
WYZ014>020-022>026-101>103-210700-
CENTRAL WYOMING
  
CITY           SKY/WX    TMP DP  RH WIND       PRES   REMARKS
BIG PINEY      FAIR      57  25  29 CALM      30.26S                  
6HR MIN TEMP:  54; 6HR MAX TEMP:  86;                                

PINEDALE       FAIR      50  32  50 NW8       30.27                   
DUBOIS         FAIR      59  32  36 NW8       30.30                   
LANDER         FAIR      71  50  47 MISG      30.20R                  
6HR MIN TEMP:  71; 6HR MAX TEMP:  89;                                

RIVERTON       FAIR      71  52  50 NE14      30.18R                  
6HR MIN TEMP:  71; 6HR MAX TEMP:  93;                                

CASPER         FAIR      62  50  64 NW7       30.17R                  
6HR MIN TEMP:  62; 6HR MAX TEMP:  90; 6HR PCP: TRACE;                

DOUGLAS        FAIR      63  53  70 NE12      30.16F                  
6HR MIN TEMP:  62; 6HR MAX TEMP:  76;                                


$$
WYZ021-027>030-104>119-210700-
SOUTHERN WYOMING
  
CITY           SKY/WX    TMP DP  RH WIND       PRES   REMARKS
EVANSTON       FAIR      64  19  17 S9        30.27S                  
6HR MIN TEMP:  63; 6HR MAX TEMP:  84;                                

KEMMERER       FAIR      59  28  31 N5        30.28                   
ROCK SPRINGS   FAIR      67  21  17 SW12      30.22S                  
6HR MIN TEMP:  67; 6HR MAX TEMP:  88;                                

DIXON          FAIR      56  24  29 E17       30.24S                  
RAWLINS        FAIR      63  53  70 NE10      30.25S                  
6HR MIN TEMP:  63; 6HR MAX TEMP:  89;                                

SARATOGA       FAIR      57  28  33 S8        30.25F                  
LARAMIE        FAIR      58  49  72 E10       30.30F                  
6HR MIN TEMP:  58; 6HR MAX TEMP:  80;                                

CHEYENNE       CLOUDY    59  55  87 VRB7      30.27F                  
6HR MIN TEMP:  59; 6HR MAX TEMP:  78; 6HR PCP: TRACE;                

TORRINGTON     FAIR      63  58  83 S16       30.13F                  
6HR MIN TEMP:  62; 6HR MAX TEMP:  86; 6HR PCP:  0.33;                

PINE BLUFFS    CLOUDY    59  55  88 N25G33    30.23S                  

$$